Torna al catalogo

CZ-2C R/B

AttivoSSO
NORAD 39203·ROCKET BODY·🇨🇳 China

Lanciato Jul 15, 2013 da Jiuquan Satellite Launch Center

Loading…

Prossimi Passaggi (prossime 24 ore)

TLE

AggiornatoSource: Space-Track

Epoca: Sep 14, 2026, 20:36 UTC

1 39203U 13035B   26257.85848431  .00000143  00000-0  42110-4 0  9992
2 39203  98.2969 123.6895 0048677 219.2696 140.4968 14.56950639699355

Traccia CZ-2C R/B in tempo reale con AllMySat

Download on the App Store